Regional Weather Roundup
Issued by NWS

Home | Current Version | Previous Version | Graphics & Text | Print | Product List | Glossary On
Versions: 1 2 3 4 5 6 7 8 9 10 11 12 13 14 15 16 17 18 19 20 21 22 23 24 25 26 27 28 29 30 31 32 33 34 35 36 37 38 39 40 41 42 43 44 45 46 47 48 49 50
106
ASUS43 KFSD 210802
RWRSD

WEATHER ROUNDUP FOR SOUTH DAKOTA
NATIONAL WEATHER SERVICE SIOUX FALLS SD
300 AM CDT SAT OCT 21 2017

NOTE: "FAIR" INDICATES FEW OR NO CLOUDS BELOW 12,000 FEET WITH NO
SIGNIFICANT WEATHER AND/OR OBSTRUCTIONS TO VISIBILITY.


SDZ001>005-009-010-012>017-210900-
NORTHWEST AND NORTH CENTRAL SOUTH DAKOTA

CITY           SKY/WX    TMP DP  RH WIND       PRES   REMARKS
BUFFALO          N/A     48  35  60 W33G47    29.47R
FAITH            N/A     55  43  63 W23G36    29.48R
MOBRIDGE       CLOUDY    59  51  75 W7        29.36R
$$

SDZ012>016-024>037-041>051-057-063-072>074-210900-
SOUTHWEST AND SOUTH CENTRAL SOUTH DAKOTA

CITY           SKY/WX    TMP DP  RH WIND       PRES   REMARKS
RAPID CTY ARPT CLOUDY    53  41  63 N20       29.51F
PIERRE         PTCLDY    60  53  77 S9        29.39R
CUSTER         CLOUDY    45  38  76 W9        29.60S
ELLSWORTH AFB  CLOUDY    55  38  52 N24G31    29.51
PHILIP         CLOUDY    61  44  53 NW29G37   29.43R
PINE RIDGE     LGT RAIN  62  37  39 W17       29.55R
SPEARFISH      MOCLDY    52  32  46 NW14G20   29.62R
WINNER         FAIR      66  57  72 SW15G28   29.42R
$$

SDZ004>011-016>023-039-040-210900-
NORTHEAST SOUTH DAKOTA

CITY           SKY/WX    TMP DP  RH WIND       PRES   REMARKS
ABERDEEN       PTCLDY    63  58  83 S15       29.38R
WATERTOWN      CLOUDY    63  58  83 S21G29    29.46F
BROOKINGS      MOCLDY    65  57  75 S22G29    29.51S
SISSETON         N/A     68  58  70 S16G24    29.42S
$$

SDZ017-020-022-023-036>040-048>070-210900-
SOUTHEAST SOUTH DAKOTA

CITY           SKY/WX    TMP DP  RH WIND       PRES   REMARKS
SIOUX FALLS    PTCLDY    66  58  75 S20G32    29.53F
HURON          PTCLDY    66  58  75 S17G25    29.42S
CHAMBERLAIN    CLOUDY    67  60  78 S15       29.42R
MITCHELL       CLOUDY    68  58  70 S16G25    29.45S
YANKTON        MOCLDY    67  58  72 SE16G25   29.51F
$$

ABBREVIATIONS USED IN REMARKS
   TC - TEMPERATURE IN CELSIUS
  WCI - WIND CHILL INDEX
   HX - HEAT INDEX
  VSB - VISIBILITY





USA.gov is the U.S. government's official web portal to all federal, state and local government web resources and services.